CW7204 Weather Reports


Display with metric or nautical units.
time (UTC)temp
F
wind
direction
speed
MPH
gust
MPH
rain 1hr
in
rain 24hr
in
rain mn
in
humidity
%
barometer
mb
20260505124414 56 67 7.0 10.0 0.00 0.00 0.00 68 1011.5
20260505123410 57 67 4.0 10.0 0.00 0.00 0.00 69 1011.5
20260505120414 57 22 3.0 10.0 0.00 0.00 0.00 67 1011.6
20260505115414 57 337 1.0 7.0 0.00 0.00 0.00 67 1011.5
20260505114413 57 67 4.0 10.0 0.00 0.00 0.00 67 1011.4
20260505113414 57 45 2.0 8.0 0.00 0.00 0.00 68 1011.4
20260505112413 57 67 2.0 9.0 0.00 0.00 0.00 68 1011.5
20260505111413 57 315 4.0 10.0 0.00 0.00 0.00 68 1011.6
20260505110412 57 67 4.0 10.0 0.00 0.00 0.00 69 1011.6
20260505101410 57 67 7.0 12.0 0.00 0.00 0.00 68 1011.9
20260505100410 57 45 3.0 8.0 0.00 0.00 0.00 69 1011.9
20260505095413 56 67 1.0 10.0 0.00 0.00 0.00 70 1011.8
20260505094409 56 360 2.0 7.0 0.00 0.00 0.00 71 1011.9
20260505093414 56 90 1.0 9.0 0.00 0.00 0.00 70 1011.9
20260505092414 56 22 0.0 9.0 0.00 0.00 0.00 67 1012.1
20260505091414 56 360 2.0 7.0 0.00 0.00 0.00 69 1012.0
20260505090413 55 360 0.0 7.0 0.00 0.00 0.00 73 1012.0
20260505085413 54 337 2.0 8.0 0.00 0.00 0.00 73 1011.9
20260505084412 56 22 2.0 8.0 0.00 0.00 0.00 72 1012.1
20260505083412 56 337 2.0 13.0 0.00 0.00 0.00 69 1012.1
20260505082412 55 337 2.0 10.0 0.00 0.00 0.00 74 1012.0
20260505081411 53 67 1.0 9.0 0.00 0.00 0.00 79 1012.1
20260505080411 53 337 3.0 7.0 0.00 0.00 0.00 75 1012.1
20260505075411 54 360 1.0 4.0 0.00 0.00 0.00 78 1012.1
20260505074410 53 360 2.0 8.0 0.00 0.00 0.00 79 1012.0
20260505073410 51 315 3.0 8.0 0.00 0.00 0.00 81 1012.0
20260505072410 51 337 2.0 8.0 0.00 0.00 0.00 82 1012.1
20260505070414 52 22 2.0 9.0 0.00 0.00 0.00 81 1012.1
20260505065414 51 360 1.0 11.0 0.00 0.00 0.00 82 1012.1
20260505064413 50 337 2.0 8.0 0.00 0.00 0.00 85 1012.2
20260505063416 48 360 0.0 4.0 0.00 0.00 0.00 88 1012.2
20260505062413 47 337 0.0 7.0 0.00 0.00 0.00 88 1012.2
20260505061415 47 360 0.0 4.0 0.00 0.00 0.00 89 1012.2
20260505060412 47 22 0.0 2.0 0.00 0.00 0.00 89 1012.2
20260505054413 46 337 2.0 6.0 0.00 0.00 0.00 90 1012.2
20260505052411 46 337 2.0 4.0 0.00 0.00 0.00 92 1012.2
20260505051410 45 337 4.0 7.0 0.00 0.00 0.00 92 1012.2
20260505050410 45 337 2.0 6.0 0.00 0.00 0.00 92 1012.2
20260505041413 43 337 1.0 4.0 0.00 0.00 0.00 92 1012.2
20260505040413 43 337 1.0 4.0 0.00 0.00 0.00 92 1012.2
20260505035413 43 337 2.0 4.0 0.00 0.00 0.00 92 1012.2
20260505034412 43 337 2.0 4.0 0.00 0.00 0.00 92 1012.2
20260505033412 43 0 0.0 2.0 0.00 0.00 0.00 92 1012.2
20260505032412 43 337 1.0 4.0 0.00 0.00 0.00 91 1012.2
20260505031412 44 337 1.0 2.0 0.00 0.00 0.00 91 1012.3
20260505030411 44 337 0.0 3.0 0.00 0.00 0.00 91 1012.3
20260505025411 44 337 1.0 2.0 0.00 0.00 0.00 90 1012.5
20260505024411 44 337 2.0 2.0 0.00 0.00 0.00 90 1012.5
20260505022410 45 337 0.0 2.0 0.00 0.00 0.00 89 1012.5
20260505021410 45 337 1.0 4.0 0.00 0.00 0.00 88 1012.4
20260505020409 45 337 0.0 6.0 0.00 0.00 0.00 87 1012.4
20260505015414 46 337 3.0 6.0 0.00 0.00 0.00 87 1012.5
20260505014414 46 337 4.0 8.0 0.00 0.00 0.00 86 1012.7
20260505013416 46 337 2.0 6.0 0.00 0.00 0.00 86 1012.7
20260505012413 47 337 1.0 2.0 0.00 0.00 0.00 86 1012.7
20260505011412 47 337 0.0 2.0 0.00 0.00 0.00 86 1012.7
20260505010412 47 337 0.0 2.0 0.00 0.00 0.00 86 1012.7
20260505005415 47 337 1.0 4.0 0.00 0.00 0.00 85 1012.7
20260505004412 47 337 0.0 6.0 0.00 0.00 0.00 85 1012.7
20260505003414 47 337 1.0 6.0 0.00 0.00 0.00 85 1012.7
20260505002411 47 360 1.0 4.0 0.00 0.00 0.00 85 1012.8
20260505000410 47 337 6.0 7.0 0.00 0.00 0.00 85 1012.9
20260504235410 47 360 1.0 7.0 0.00 0.00 0.00 85 1013.0
20260504233417 47 337 2.0 6.0 0.00 0.00 0.00 85 1013.0
20260504232414 47 315 3.0 6.0 0.00 0.00 0.00 86 1013.1
20260504231414 47 337 1.0 6.0 0.00 0.00 0.00 86 1013.2
20260504230413 47 337 0.0 4.0 0.00 0.00 0.00 86 1013.2
20260504225413 47 337 1.0 2.0 0.00 0.00 0.00 85 1013.2
20260504224412 47 292 2.0 6.0 0.00 0.00 0.00 85 1013.2
20260504223412 47 337 3.0 7.0 0.00 0.00 0.00 85 1013.2
20260504221412 48 337 1.0 6.0 0.00 0.00 0.00 84 1013.3
20260504215411 49 337 2.0 4.0 0.00 0.00 0.00 83 1013.6
20260504214411 49 315 3.0 6.0 0.00 0.00 0.00 82 1013.4
20260504213410 50 315 1.0 6.0 0.00 0.00 0.00 82 1013.4
20260504212410 50 315 2.0 6.0 0.00 0.00 0.00 81 1013.4
20260504211410 50 315 2.0 6.0 0.00 0.00 0.00 81 1013.4
20260504210414 51 292 0.0 6.0 0.00 0.00 0.00 82 1013.4
20260504205414 51 315 2.0 6.0 0.00 0.01 0.00 81 1013.3
20260504204414 51 315 3.0 7.0 0.00 0.01 0.00 81 1013.3
20260504203413 51 292 1.0 4.0 0.00 0.01 0.00 81 1013.3
20260504202413 52 315 3.0 6.0 0.00 0.01 0.00 81 1013.2
20260504201412 52 315 2.0 4.0 0.00 0.01 0.00 81 1013.2
20260504200412 52 315 1.0 2.0 0.00 0.01 0.00 81 1013.2
20260504195412 52 315 1.0 2.0 0.00 0.06 0.00 82 1013.2
20260504194411 53 0 0.0 6.0 0.00 0.06 0.00 80 1013.1
20260504193414 53 315 1.0 3.0 0.00 0.06 0.00 80 1013.1
20260504192411 54 315 2.0 4.0 0.00 0.06 0.00 78 1013.1
20260504191411 54 292 0.0 2.0 0.00 0.06 0.00 78 1013.0
20260504190410 55 292 1.0 4.0 0.00 0.06 0.00 76 1013.0
20260504185410 55 292 2.0 6.0 0.00 0.06 0.00 76 1012.9
20260504184409 56 315 3.0 6.0 0.00 0.06 0.00 76 1012.8
20260504183412 56 315 2.0 7.0 0.00 0.06 0.00 76 1012.8
20260504182414 57 292 3.0 8.0 0.00 0.06 0.00 75 1012.7
20260504181414 57 315 1.0 6.0 0.00 0.06 0.00 75 1012.7
20260504180413 58 270 3.0 7.0 0.00 0.06 0.00 76 1012.7
20260504175413 58 315 6.0 8.0 0.00 0.06 0.00 76 1012.7
20260504174412 57 292 1.0 4.0 0.00 0.06 0.00 76 1012.7
20260504173412 58 315 3.0 7.0 0.00 0.06 0.00 75 1012.7
20260504172412 59 292 1.0 6.0 0.00 0.06 0.00 74 1012.7
20260504171415 59 292 3.0 8.0 0.00 0.06 0.00 75 1012.7
20260504170411 59 0 0.0 6.0 0.00 0.06 0.00 75 1012.7
20260504160409 60 315 3.0 8.0 0.00 0.06 0.00 72 1012.7
20260504150412 61 292 4.0 10.0 0.00 0.06 0.00 69 1012.9
20260504140411 62 315 4.0 9.0 0.00 0.06 0.00 69 1013.2
20260504130414 61 225 2.0 7.0 0.00 0.06 0.00 71 1013.3